{"data":{"norad_id":65626,"intl_designator":"2025-210E","name":"STARLINK-35225","alt_names":[],"object_type":"PAYLOAD","status":"ACTIVE","operator":null,"country":"US","launch_date":"2025-09-18","launch_site_code":"AFETR","launch_vehicle":null,"mission":null,"orbit_class":"UNKNOWN","rcs_meters":null,"size_class":null,"mass_kg":null,"dimensions":null,"purposes":["comms"],"wikipedia_slug":null,"has_3d_model":false,"image_url":null,"decayed_at":null,"tle_current":{"epoch":"2026-09-19T23:54:52.362432Z","epoch_age_seconds":155408,"freshness":"FRESH","line1":"1 65626U 25210E   26262.99643938  .00018945  00000+0  57049-3 0  9998","line2":"2 65626  53.1580 120.0593 0001276  97.1003 263.0145 15.34396272 57549","mean_motion":15.34396272,"eccentricity":0.0001276,"inclination_deg":53.158,"raan_deg":120.0593,"arg_perigee_deg":97.1003,"mean_anomaly_deg":263.0145,"bstar":0.00057049,"rev_number":5754,"period_min":93.847986095733,"perigee_km":461.84142800267,"apogee_km":463.58721325969,"semimajor_km":6840.8513206312,"source":"CELESTRAK","updated_at":"2026-09-21T09:00:35.673087Z"}}}